Year,Month,Day,Hour,Minute,Value (Times are PST for temperature in C)
2007,08,17,00,00,14.40
2007,08,17,00,01,14.40
2007,08,17,00,02,14.40
2007,08,17,00,03,14.40
2007,08,17,00,04,14.40
2007,08,17,00,05,14.40
2007,08,17,00,06,14.40
2007,08,17,00,07,14.50
2007,08,17,00,08,14.40
2007,08,17,00,09,14.50
2007,08,17,00,10,14.40
2007,08,17,00,11,14.40
2007,08,17,00,12,14.40
2007,08,17,00,13,14.40
2007,08,17,00,14,14.40
2007,08,17,00,15,14.40
2007,08,17,00,16,14.30
2007,08,17,00,17,14.30
2007,08,17,00,18,14.30
2007,08,17,00,19,14.30
2007,08,17,00,20,14.20
2007,08,17,00,21,14.20
2007,08,17,00,22,14.20
2007,08,17,00,23,14.10
2007,08,17,00,24,14.10
2007,08,17,00,25,14.00
2007,08,17,00,26,14.00
2007,08,17,00,27,14.00
2007,08,17,00,28,13.90
2007,08,17,00,29,13.90
2007,08,17,00,30,13.90
2007,08,17,00,31,13.80
2007,08,17,00,32,13.80
2007,08,17,00,33,13.80
2007,08,17,00,34,13.80
2007,08,17,00,35,13.70
2007,08,17,00,36,13.70
2007,08,17,00,37,13.70
2007,08,17,00,38,13.60
2007,08,17,00,39,13.60
2007,08,17,00,40,13.60
2007,08,17,00,41,13.60
2007,08,17,00,42,13.50
2007,08,17,00,43,13.40
2007,08,17,00,44,13.40
2007,08,17,00,45,13.40
2007,08,17,00,46,13.30
2007,08,17,00,47,13.30
2007,08,17,00,48,13.30
2007,08,17,00,49,13.30
2007,08,17,00,50,13.30
2007,08,17,00,51,13.30
2007,08,17,00,52,13.20
2007,08,17,00,53,13.20
2007,08,17,00,54,13.20
2007,08,17,00,55,13.20
2007,08,17,00,56,13.30
2007,08,17,00,57,13.30
2007,08,17,00,58,13.30
2007,08,17,00,59,13.30
2007,08,17,01,00,13.30
2007,08,17,01,01,13.30
2007,08,17,01,02,13.30
2007,08,17,01,03,13.30
2007,08,17,01,04,13.30
2007,08,17,01,05,13.30
2007,08,17,01,06,13.30
2007,08,17,01,07,13.30
2007,08,17,01,08,13.30
2007,08,17,01,09,13.30
2007,08,17,01,10,13.30
2007,08,17,01,11,13.30
2007,08,17,01,12,13.30
2007,08,17,01,13,13.30
2007,08,17,01,14,13.30
2007,08,17,01,15,13.30
2007,08,17,01,16,13.30
2007,08,17,01,17,13.30
2007,08,17,01,18,13.40
2007,08,17,01,19,13.40
2007,08,17,01,20,13.40
2007,08,17,01,21,13.40
2007,08,17,01,22,13.40
2007,08,17,01,23,13.40
2007,08,17,01,24,13.40
2007,08,17,01,25,13.40
2007,08,17,01,26,13.40
2007,08,17,01,27,13.30
2007,08,17,01,28,13.30
2007,08,17,01,29,13.30
2007,08,17,01,30,13.30
2007,08,17,01,31,13.30
2007,08,17,01,32,13.30
2007,08,17,01,33,13.30
2007,08,17,01,34,13.30
2007,08,17,01,35,13.30
2007,08,17,01,36,13.30
2007,08,17,01,37,13.30
2007,08,17,01,38,13.30
2007,08,17,01,39,13.30
2007,08,17,01,40,13.30
2007,08,17,01,41,13.30
2007,08,17,01,42,13.30
2007,08,17,01,43,13.30
2007,08,17,01,44,13.30
2007,08,17,01,45,13.30
2007,08,17,01,46,13.30
2007,08,17,01,47,13.30
2007,08,17,01,48,13.30
2007,08,17,01,49,13.30
2007,08,17,01,50,13.30
2007,08,17,01,51,13.30
2007,08,17,01,52,13.30
2007,08,17,01,53,13.40
2007,08,17,01,54,13.40
2007,08,17,01,55,13.40
2007,08,17,01,56,13.50
2007,08,17,01,57,13.50
2007,08,17,01,58,13.60
2007,08,17,01,59,13.60
2007,08,17,02,00,13.60
2007,08,17,02,01,13.70
2007,08,17,02,02,13.70
2007,08,17,02,03,13.70
2007,08,17,02,04,13.70
2007,08,17,02,05,13.70
2007,08,17,02,06,13.70
2007,08,17,02,07,13.70
2007,08,17,02,08,13.70
2007,08,17,02,09,13.70
2007,08,17,02,10,13.80
2007,08,17,02,11,13.80
2007,08,17,02,12,13.80
2007,08,17,02,13,13.80
2007,08,17,02,14,13.80
2007,08,17,02,15,13.80
2007,08,17,02,16,13.70
2007,08,17,02,17,13.70
2007,08,17,02,18,13.70
2007,08,17,02,19,13.70
2007,08,17,02,20,13.70
2007,08,17,02,21,13.70
2007,08,17,02,22,13.60
2007,08,17,02,23,13.60
2007,08,17,02,24,13.50
2007,08,17,02,25,13.50
2007,08,17,02,26,13.40
2007,08,17,02,27,13.40
2007,08,17,02,28,13.40
2007,08,17,02,29,13.40
2007,08,17,02,30,13.30
2007,08,17,02,31,13.30
2007,08,17,02,32,13.30
2007,08,17,02,33,13.30
2007,08,17,02,34,13.30
2007,08,17,02,35,13.30
2007,08,17,02,36,13.30
2007,08,17,02,37,13.30
2007,08,17,02,38,13.30
2007,08,17,02,39,13.30
2007,08,17,02,40,13.30
2007,08,17,02,41,13.30
2007,08,17,02,42,13.30
2007,08,17,02,43,13.30
2007,08,17,02,44,13.30
2007,08,17,02,45,13.30
2007,08,17,02,46,13.30
2007,08,17,02,47,13.30
2007,08,17,02,48,13.30
2007,08,17,02,49,13.20
2007,08,17,02,50,13.20
2007,08,17,02,51,13.20
2007,08,17,02,52,13.20
2007,08,17,02,53,13.20
2007,08,17,02,54,13.20
2007,08,17,02,55,13.20
2007,08,17,02,56,13.10
2007,08,17,02,57,13.10
2007,08,17,02,58,13.10
2007,08,17,02,59,13.10
2007,08,17,03,00,13.10
2007,08,17,03,01,13.00
2007,08,17,03,02,13.00
2007,08,17,03,03,13.00
2007,08,17,03,04,12.90
2007,08,17,03,05,12.90
2007,08,17,03,06,12.90
2007,08,17,03,07,12.90
2007,08,17,03,08,12.80
2007,08,17,03,09,12.80
2007,08,17,03,10,12.80
2007,08,17,03,11,12.80
2007,08,17,03,12,12.80
2007,08,17,03,13,12.80
2007,08,17,03,14,12.80
2007,08,17,03,15,12.70
2007,08,17,03,16,12.70
2007,08,17,03,17,12.70
2007,08,17,03,18,12.70
2007,08,17,03,19,12.70
2007,08,17,03,20,12.70
2007,08,17,03,21,12.70
2007,08,17,03,22,12.70
2007,08,17,03,23,12.70
2007,08,17,03,24,12.70
2007,08,17,03,25,12.70
2007,08,17,03,26,12.70
2007,08,17,03,27,12.70
2007,08,17,03,28,12.70
2007,08,17,03,29,12.60
2007,08,17,03,30,12.60
2007,08,17,03,31,12.60
2007,08,17,03,32,12.60
2007,08,17,03,33,12.60
2007,08,17,03,34,12.60
2007,08,17,03,35,12.60
2007,08,17,03,36,12.60
2007,08,17,03,37,12.60
2007,08,17,03,38,12.60
2007,08,17,03,39,12.60
2007,08,17,03,40,12.60
2007,08,17,03,41,12.60
2007,08,17,03,42,12.60
2007,08,17,03,43,12.60
2007,08,17,03,44,12.50
2007,08,17,03,45,12.50
2007,08,17,03,46,12.50
2007,08,17,03,47,12.50
2007,08,17,03,48,12.50
2007,08,17,03,49,12.50
2007,08,17,03,50,12.40
2007,08,17,03,51,12.40
2007,08,17,03,52,12.40
2007,08,17,03,53,12.40
2007,08,17,03,54,12.40
2007,08,17,03,55,12.40
2007,08,17,03,56,12.40
2007,08,17,03,57,12.40
2007,08,17,03,58,12.40
2007,08,17,03,59,12.40
2007,08,17,04,00,12.40
2007,08,17,04,01,12.40
2007,08,17,04,02,12.40
2007,08,17,04,03,12.40
2007,08,17,04,04,12.40
2007,08,17,04,05,12.40
2007,08,17,04,06,12.40
2007,08,17,04,07,12.30
2007,08,17,04,08,12.40
2007,08,17,04,09,12.30
2007,08,17,04,10,12.30
2007,08,17,04,11,12.30
2007,08,17,04,12,12.30
2007,08,17,04,13,12.30
2007,08,17,04,14,12.30
2007,08,17,04,15,12.30
2007,08,17,04,16,12.30
2007,08,17,04,17,12.30
2007,08,17,04,18,12.30
2007,08,17,04,19,12.30
2007,08,17,04,20,12.30
2007,08,17,04,21,12.30
2007,08,17,04,22,12.30
2007,08,17,04,23,12.30
2007,08,17,04,24,12.20
2007,08,17,04,25,12.20
2007,08,17,04,26,12.20
2007,08,17,04,27,12.20
2007,08,17,04,28,12.20
2007,08,17,04,29,12.10
2007,08,17,04,30,12.10
2007,08,17,04,31,12.10
2007,08,17,04,32,12.10
2007,08,17,04,33,12.10
2007,08,17,04,34,12.00
2007,08,17,04,35,12.00
2007,08,17,04,36,12.00
2007,08,17,04,37,12.00
2007,08,17,04,38,12.00
2007,08,17,04,39,12.00
2007,08,17,04,40,12.00
2007,08,17,04,41,12.00
2007,08,17,04,42,12.00
2007,08,17,04,43,12.00
2007,08,17,04,44,12.00
2007,08,17,04,45,12.00
2007,08,17,04,46,12.00
2007,08,17,04,47,12.00
2007,08,17,04,48,11.90
2007,08,17,04,49,11.90
2007,08,17,04,50,11.90
2007,08,17,04,51,11.90
2007,08,17,04,52,11.90
2007,08,17,04,53,11.90
2007,08,17,04,54,11.90
2007,08,17,04,55,11.90
2007,08,17,04,56,11.90
2007,08,17,04,57,11.90
2007,08,17,04,58,12.00
2007,08,17,04,59,12.00
2007,08,17,05,00,12.00
2007,08,17,05,01,12.00
2007,08,17,05,02,12.00
2007,08,17,05,03,12.00
2007,08,17,05,04,12.00
2007,08,17,05,05,12.00
2007,08,17,05,06,12.00
2007,08,17,05,07,12.10
2007,08,17,05,08,12.10
2007,08,17,05,09,12.10
2007,08,17,05,10,12.10
2007,08,17,05,11,12.10
2007,08,17,05,12,12.10
2007,08,17,05,13,12.10
2007,08,17,05,14,12.20
2007,08,17,05,15,12.20
2007,08,17,05,16,12.20
2007,08,17,05,17,12.20
2007,08,17,05,18,12.20
2007,08,17,05,19,12.20
2007,08,17,05,20,12.20
2007,08,17,05,21,12.20
2007,08,17,05,22,12.20
2007,08,17,05,23,12.20
2007,08,17,05,24,12.20
2007,08,17,05,25,12.20
2007,08,17,05,26,12.20
2007,08,17,05,27,12.20
2007,08,17,05,28,12.20
2007,08,17,05,29,12.20
2007,08,17,05,30,12.20
2007,08,17,05,31,12.20
2007,08,17,05,32,12.20
2007,08,17,05,33,12.20
2007,08,17,05,34,12.20
2007,08,17,05,35,12.20
2007,08,17,05,36,12.20
2007,08,17,05,37,12.20
2007,08,17,05,38,12.20
2007,08,17,05,39,12.20
2007,08,17,05,40,12.20
2007,08,17,05,41,12.20
2007,08,17,05,42,12.20
2007,08,17,05,43,12.30
2007,08,17,05,44,12.30
2007,08,17,05,45,12.30
2007,08,17,05,46,12.30
2007,08,17,05,47,12.30
2007,08,17,05,48,12.30
2007,08,17,05,49,12.30
2007,08,17,05,50,12.30
2007,08,17,05,51,12.30
2007,08,17,05,52,12.30
2007,08,17,05,53,12.30
2007,08,17,05,54,12.30
2007,08,17,05,55,12.30
2007,08,17,05,56,12.30
2007,08,17,05,57,12.30
2007,08,17,05,58,12.30
2007,08,17,05,59,12.30
2007,08,17,06,00,12.30
2007,08,17,06,01,12.30
2007,08,17,06,02,12.30
2007,08,17,06,03,12.30
2007,08,17,06,04,12.20
2007,08,17,06,05,12.20
2007,08,17,06,06,12.20
2007,08,17,06,07,12.20
2007,08,17,06,08,12.20
2007,08,17,06,09,12.20
2007,08,17,06,10,12.20
2007,08,17,06,11,12.20
2007,08,17,06,12,12.20
2007,08,17,06,13,12.20
2007,08,17,06,14,12.20
2007,08,17,06,15,12.20
2007,08,17,06,16,12.20
2007,08,17,06,17,12.20
2007,08,17,06,18,12.20
2007,08,17,06,19,12.20
2007,08,17,06,20,12.20
2007,08,17,06,21,12.30
2007,08,17,06,22,12.30
2007,08,17,06,23,12.30
2007,08,17,06,24,12.30
2007,08,17,06,25,12.30
2007,08,17,06,26,12.30
2007,08,17,06,27,12.30
2007,08,17,06,28,12.30
2007,08,17,06,29,12.40
2007,08,17,06,30,12.40
2007,08,17,06,31,12.40
2007,08,17,06,32,12.40
2007,08,17,06,33,12.40
2007,08,17,06,34,12.40
2007,08,17,06,35,12.50
2007,08,17,06,36,12.50
2007,08,17,06,37,12.50
2007,08,17,06,38,12.50
2007,08,17,06,39,12.60
2007,08,17,06,40,12.60
2007,08,17,06,41,12.60
2007,08,17,06,42,12.60
2007,08,17,06,43,12.70
2007,08,17,06,44,12.70
2007,08,17,06,45,12.70
2007,08,17,06,46,12.80
2007,08,17,06,47,12.80
2007,08,17,06,48,12.80
2007,08,17,06,49,12.80
2007,08,17,06,50,12.90
2007,08,17,06,51,12.90
2007,08,17,06,52,12.90
2007,08,17,06,53,13.00
2007,08,17,06,54,13.00
2007,08,17,06,55,13.10
2007,08,17,06,56,13.10
2007,08,17,06,57,13.10
2007,08,17,06,58,13.10
2007,08,17,06,59,13.20
2007,08,17,07,00,13.20
2007,08,17,07,01,13.20
2007,08,17,07,02,13.20
2007,08,17,07,03,13.20
2007,08,17,07,04,13.20
2007,08,17,07,05,13.20
2007,08,17,07,06,13.30
2007,08,17,07,07,13.30
2007,08,17,07,08,13.30
2007,08,17,07,09,13.30
2007,08,17,07,10,13.30
2007,08,17,07,11,13.30
2007,08,17,07,12,13.30
2007,08,17,07,13,13.40
2007,08,17,07,14,13.40
2007,08,17,07,15,13.40
2007,08,17,07,16,13.40
2007,08,17,07,17,13.40
2007,08,17,07,18,13.40
2007,08,17,07,19,13.40
2007,08,17,07,20,13.40
2007,08,17,07,21,13.40
2007,08,17,07,22,13.40
2007,08,17,07,23,13.40
2007,08,17,07,24,13.40
2007,08,17,07,25,13.40
2007,08,17,07,26,13.40
2007,08,17,07,27,13.40
2007,08,17,07,28,13.40
2007,08,17,07,29,13.40
2007,08,17,07,30,13.40
2007,08,17,07,31,13.40
2007,08,17,07,32,13.40
2007,08,17,07,33,13.40
2007,08,17,07,34,13.40
2007,08,17,07,35,13.40
2007,08,17,07,36,13.40
2007,08,17,07,37,13.40
2007,08,17,07,38,13.40
2007,08,17,07,39,13.40
2007,08,17,07,40,13.40
2007,08,17,07,41,13.40
2007,08,17,07,42,13.40
2007,08,17,07,43,13.40
2007,08,17,07,44,13.40
2007,08,17,07,45,13.40
2007,08,17,07,46,13.50
2007,08,17,07,47,13.50
2007,08,17,07,48,13.50
2007,08,17,07,49,13.50
2007,08,17,07,50,13.50
2007,08,17,07,51,13.60
2007,08,17,07,52,13.60
2007,08,17,07,53,13.60
2007,08,17,07,54,13.60
2007,08,17,07,55,13.60
2007,08,17,07,56,13.70
2007,08,17,07,57,13.70
2007,08,17,07,58,13.70
2007,08,17,07,59,13.70
2007,08,17,08,00,13.80
2007,08,17,08,01,13.80
2007,08,17,08,02,13.80
2007,08,17,08,03,13.80
2007,08,17,08,04,13.80
2007,08,17,08,05,13.90
2007,08,17,08,06,13.90
2007,08,17,08,07,13.90
2007,08,17,08,08,14.00
2007,08,17,08,09,14.00
2007,08,17,08,10,14.00
2007,08,17,08,11,14.10
2007,08,17,08,12,14.10
2007,08,17,08,13,14.10
2007,08,17,08,14,14.10
2007,08,17,08,15,14.20
2007,08,17,08,16,14.20
2007,08,17,08,17,14.20
2007,08,17,08,18,14.30
2007,08,17,08,19,14.30
2007,08,17,08,20,14.30
2007,08,17,08,21,14.40
2007,08,17,08,22,14.40
2007,08,17,08,23,14.40
2007,08,17,08,24,14.40
2007,08,17,08,25,14.50
2007,08,17,08,26,14.60
2007,08,17,08,27,14.60
2007,08,17,08,28,14.60
2007,08,17,08,29,14.60
2007,08,17,08,30,14.70
2007,08,17,08,31,14.70
2007,08,17,08,32,14.70
2007,08,17,08,33,14.80
2007,08,17,08,34,14.80
2007,08,17,08,35,14.80
2007,08,17,08,36,14.90
2007,08,17,08,37,15.00
2007,08,17,08,38,15.00
2007,08,17,08,39,15.00
2007,08,17,08,40,15.00
2007,08,17,08,41,15.00
2007,08,17,08,42,15.00
2007,08,17,08,43,15.00
2007,08,17,08,44,15.00
2007,08,17,08,45,15.00
2007,08,17,08,46,15.00
2007,08,17,08,47,15.00
2007,08,17,08,48,15.00
2007,08,17,08,49,15.00
2007,08,17,08,50,15.00
2007,08,17,08,51,15.00
2007,08,17,08,52,15.10
2007,08,17,08,53,15.10
2007,08,17,08,54,15.20
2007,08,17,08,55,15.20
2007,08,17,08,56,15.20
2007,08,17,08,57,15.20
2007,08,17,08,58,15.30
2007,08,17,08,59,15.30
2007,08,17,09,00,15.30
2007,08,17,09,01,15.30
2007,08,17,09,02,15.20
2007,08,17,09,03,15.20
2007,08,17,09,04,15.20
2007,08,17,09,05,15.20
2007,08,17,09,06,15.20
2007,08,17,09,07,15.20
2007,08,17,09,08,15.20
2007,08,17,09,09,15.30
2007,08,17,09,10,15.30
2007,08,17,09,11,15.40
2007,08,17,09,12,15.40
2007,08,17,09,13,15.50
2007,08,17,09,14,15.60
2007,08,17,09,15,15.70
2007,08,17,09,16,15.70
2007,08,17,09,17,15.70
2007,08,17,09,18,15.70
2007,08,17,09,19,15.70
2007,08,17,09,20,15.70
2007,08,17,09,21,15.70
2007,08,17,09,22,15.70
2007,08,17,09,23,15.70
2007,08,17,09,24,15.80
2007,08,17,09,25,15.80
2007,08,17,09,26,15.90
2007,08,17,09,27,16.00
2007,08,17,09,28,16.10
2007,08,17,09,29,16.10
2007,08,17,09,30,16.20
2007,08,17,09,31,16.30
2007,08,17,09,32,16.30
2007,08,17,09,33,16.40
2007,08,17,09,34,16.40
2007,08,17,09,35,16.60
2007,08,17,09,36,16.70
2007,08,17,09,37,16.60
2007,08,17,09,38,16.60
2007,08,17,09,39,16.60
2007,08,17,09,40,16.60
2007,08,17,09,41,16.60
2007,08,17,09,42,16.70
2007,08,17,09,43,16.80
2007,08,17,09,44,16.80
2007,08,17,09,45,16.90
2007,08,17,09,46,16.90
2007,08,17,09,47,16.90
2007,08,17,09,48,16.90
2007,08,17,09,49,16.90
2007,08,17,09,50,16.90
2007,08,17,09,51,17.00
2007,08,17,09,52,17.00
2007,08,17,09,53,17.10
2007,08,17,09,54,17.10
2007,08,17,09,55,17.20
2007,08,17,09,56,17.30
2007,08,17,09,57,17.40
2007,08,17,09,58,17.50
2007,08,17,09,59,17.60
2007,08,17,10,00,17.70
2007,08,17,10,01,17.70
2007,08,17,10,02,17.70
2007,08,17,10,03,17.70
2007,08,17,10,04,17.60
2007,08,17,10,05,17.50
2007,08,17,10,06,17.50
2007,08,17,10,07,17.60
2007,08,17,10,08,17.60
2007,08,17,10,09,17.70
2007,08,17,10,10,17.80
2007,08,17,10,11,17.90
2007,08,17,10,12,18.00
2007,08,17,10,13,18.00
2007,08,17,10,14,18.10
2007,08,17,10,15,18.10
2007,08,17,10,16,18.10
2007,08,17,10,17,18.10
2007,08,17,10,18,18.10
2007,08,17,10,19,18.10
2007,08,17,10,20,18.10
2007,08,17,10,21,18.10
2007,08,17,10,22,18.10
2007,08,17,10,23,18.20
2007,08,17,10,24,18.20
2007,08,17,10,25,18.20
2007,08,17,10,26,18.20
2007,08,17,10,27,18.20
2007,08,17,10,28,18.20
2007,08,17,10,29,18.20
2007,08,17,10,30,18.30
2007,08,17,10,31,18.30
2007,08,17,10,32,18.30
2007,08,17,10,33,18.40
2007,08,17,10,34,18.40
2007,08,17,10,35,18.50
2007,08,17,10,36,18.60
2007,08,17,10,37,18.60
2007,08,17,10,38,18.60
2007,08,17,10,39,18.60
2007,08,17,10,40,18.70
2007,08,17,10,41,18.70
2007,08,17,10,42,18.80
2007,08,17,10,43,18.90
2007,08,17,10,44,19.10
2007,08,17,10,45,19.20
2007,08,17,10,46,19.20
2007,08,17,10,47,19.30
2007,08,17,10,48,19.30
2007,08,17,10,49,19.20
2007,08,17,10,50,19.10
2007,08,17,10,51,19.10
2007,08,17,10,52,19.00
2007,08,17,10,53,18.90
2007,08,17,10,54,18.80
2007,08,17,10,55,18.80
2007,08,17,10,56,18.80
2007,08,17,10,57,18.80
2007,08,17,10,58,18.90
2007,08,17,10,59,19.00
2007,08,17,11,00,19.10
2007,08,17,11,01,19.20
2007,08,17,11,02,19.30
2007,08,17,11,03,19.30
2007,08,17,11,04,19.20
2007,08,17,11,05,19.10
2007,08,17,11,06,19.10
2007,08,17,11,07,19.10
2007,08,17,11,08,19.20
2007,08,17,11,09,19.20
2007,08,17,11,10,19.10
2007,08,17,11,11,19.10
2007,08,17,11,12,19.10
2007,08,17,11,13,19.20
2007,08,17,11,14,19.20
2007,08,17,11,15,19.20
2007,08,17,11,16,19.20
2007,08,17,11,17,19.30
2007,08,17,11,18,19.20
2007,08,17,11,19,19.30
2007,08,17,11,20,19.30
2007,08,17,11,21,19.40
2007,08,17,11,22,19.50
2007,08,17,11,23,19.60
2007,08,17,11,24,19.70
2007,08,17,11,25,19.80
2007,08,17,11,26,19.80
2007,08,17,11,27,19.90
2007,08,17,11,28,19.90
2007,08,17,11,29,19.90
2007,08,17,11,30,19.80
2007,08,17,11,31,19.80
2007,08,17,11,32,19.80
2007,08,17,11,33,19.80
2007,08,17,11,34,19.70
2007,08,17,11,35,19.70
2007,08,17,11,36,19.60
2007,08,17,11,37,19.60
2007,08,17,11,38,19.60
2007,08,17,11,39,19.60
2007,08,17,11,40,19.60
2007,08,17,11,41,19.60
2007,08,17,11,42,19.60
2007,08,17,11,43,19.60
2007,08,17,11,44,19.50
2007,08,17,11,45,19.50
2007,08,17,11,46,19.60
2007,08,17,11,47,19.60
2007,08,17,11,48,19.70
2007,08,17,11,49,19.70
2007,08,17,11,50,19.80
2007,08,17,11,51,19.90
2007,08,17,11,52,19.90
2007,08,17,11,53,20.00
2007,08,17,11,54,20.00
2007,08,17,11,55,20.10
2007,08,17,11,56,20.10
2007,08,17,11,57,20.20
2007,08,17,11,58,20.20
2007,08,17,11,59,20.30
2007,08,17,12,00,20.40
2007,08,17,12,01,20.50
2007,08,17,12,02,20.60
2007,08,17,12,03,20.60
2007,08,17,12,04,20.60
2007,08,17,12,05,20.60
2007,08,17,12,06,20.50
2007,08,17,12,07,20.50
2007,08,17,12,08,20.40
2007,08,17,12,09,20.40
2007,08,17,12,10,20.30
2007,08,17,12,11,20.30
2007,08,17,12,12,20.40
2007,08,17,12,13,20.40
2007,08,17,12,14,20.50
2007,08,17,12,15,20.60
2007,08,17,12,16,20.60
2007,08,17,12,17,20.50
2007,08,17,12,18,20.40
2007,08,17,12,19,20.30
2007,08,17,12,20,20.40
2007,08,17,12,21,20.50
2007,08,17,12,22,20.60
2007,08,17,12,23,20.60
2007,08,17,12,24,20.60
2007,08,17,12,25,20.70
2007,08,17,12,26,20.80
2007,08,17,12,27,20.90
2007,08,17,12,28,21.00
2007,08,17,12,29,21.10
2007,08,17,12,30,21.00
2007,08,17,12,31,20.90
2007,08,17,12,32,20.80
2007,08,17,12,33,20.70
2007,08,17,12,34,20.50
2007,08,17,12,35,20.40
2007,08,17,12,36,20.40
2007,08,17,12,37,20.30
2007,08,17,12,38,20.30
2007,08,17,12,39,20.40
2007,08,17,12,40,20.40
2007,08,17,12,41,20.60
2007,08,17,12,42,20.60
2007,08,17,12,43,20.70
2007,08,17,12,44,21.00
2007,08,17,12,45,21.00
2007,08,17,12,46,21.10
2007,08,17,12,47,21.20
2007,08,17,12,48,21.30
2007,08,17,12,49,21.40
2007,08,17,12,50,21.50
2007,08,17,12,51,21.70
2007,08,17,12,52,21.80
2007,08,17,12,53,21.90
2007,08,17,12,54,21.90
2007,08,17,12,55,22.00
2007,08,17,12,56,22.00
2007,08,17,12,57,22.10
2007,08,17,12,58,22.20
2007,08,17,12,59,22.30
2007,08,17,13,00,22.40
2007,08,17,13,01,22.40
2007,08,17,13,02,22.50
2007,08,17,13,03,22.50
2007,08,17,13,04,22.40
2007,08,17,13,05,22.40
2007,08,17,13,06,22.40
2007,08,17,13,07,22.40
2007,08,17,13,08,22.40
2007,08,17,13,09,22.50
2007,08,17,13,10,22.40
2007,08,17,13,11,22.30
2007,08,17,13,12,22.30
2007,08,17,13,13,22.40
2007,08,17,13,14,22.40
2007,08,17,13,15,22.50
2007,08,17,13,16,22.50
2007,08,17,13,17,22.40
2007,08,17,13,18,22.40
2007,08,17,13,19,22.40
2007,08,17,13,20,22.40
2007,08,17,13,21,22.30
2007,08,17,13,22,22.10
2007,08,17,13,23,22.10
2007,08,17,13,24,21.80
2007,08,17,13,25,21.50
2007,08,17,13,26,21.40
2007,08,17,13,27,21.30
2007,08,17,13,28,21.00
2007,08,17,13,29,20.90
2007,08,17,13,30,20.80
2007,08,17,13,31,20.60
2007,08,17,13,32,20.50
2007,08,17,13,33,20.40
2007,08,17,13,34,20.30
2007,08,17,13,35,20.20
2007,08,17,13,36,20.20
2007,08,17,13,37,20.20
2007,08,17,13,38,20.20
2007,08,17,13,39,20.20
2007,08,17,13,40,20.10
2007,08,17,13,41,20.00
2007,08,17,13,42,19.90
2007,08,17,13,43,19.80
2007,08,17,13,44,19.70
2007,08,17,13,45,19.60
2007,08,17,13,46,19.50
2007,08,17,13,47,19.50
2007,08,17,13,48,19.50
2007,08,17,13,49,19.50
2007,08,17,13,50,19.50
2007,08,17,13,51,19.50
2007,08,17,13,52,19.50
2007,08,17,13,53,19.40
2007,08,17,13,54,19.30
2007,08,17,13,55,19.30
2007,08,17,13,56,19.20
2007,08,17,13,57,19.20
2007,08,17,13,58,19.10
2007,08,17,13,59,19.10
2007,08,17,14,00,19.10
2007,08,17,14,01,19.20
2007,08,17,14,02,19.20
2007,08,17,14,03,19.20
2007,08,17,14,04,19.30
2007,08,17,14,05,19.30
2007,08,17,14,06,19.30
2007,08,17,14,07,19.30
2007,08,17,14,08,19.40
2007,08,17,14,09,19.40
2007,08,17,14,10,19.50
2007,08,17,14,11,19.60
2007,08,17,14,12,19.60
2007,08,17,14,13,19.60
2007,08,17,14,14,19.60
2007,08,17,14,15,19.70
2007,08,17,14,16,19.70
2007,08,17,14,17,19.70
2007,08,17,14,18,19.80
2007,08,17,14,19,19.90
2007,08,17,14,20,20.00
2007,08,17,14,21,20.00
2007,08,17,14,22,20.00
2007,08,17,14,23,20.10
2007,08,17,14,24,20.10
2007,08,17,14,25,20.10
2007,08,17,14,26,20.20
2007,08,17,14,27,20.20
2007,08,17,14,28,20.30
2007,08,17,14,29,20.30
2007,08,17,14,30,20.30
2007,08,17,14,31,20.30
2007,08,17,14,32,20.40
2007,08,17,14,33,20.40
2007,08,17,14,34,20.50
2007,08,17,14,35,20.50
2007,08,17,14,36,20.50
2007,08,17,14,37,20.30
2007,08,17,14,38,20.10
2007,08,17,14,39,19.80
2007,08,17,14,40,19.60
2007,08,17,14,41,19.40
2007,08,17,14,42,19.20
2007,08,17,14,43,19.00
2007,08,17,14,44,18.50
2007,08,17,14,45,18.20
2007,08,17,14,46,18.00
2007,08,17,14,47,17.70
2007,08,17,14,48,17.50
2007,08,17,14,49,17.40
2007,08,17,14,50,17.30
2007,08,17,14,51,17.30
2007,08,17,14,52,17.30
2007,08,17,14,53,17.30
2007,08,17,14,54,17.40
2007,08,17,14,55,17.40
2007,08,17,14,56,17.50
2007,08,17,14,57,17.60
2007,08,17,14,58,17.60
2007,08,17,14,59,17.70
2007,08,17,15,00,17.70
2007,08,17,15,01,17.80
2007,08,17,15,02,17.90
2007,08,17,15,03,18.00
2007,08,17,15,04,18.10
2007,08,17,15,05,18.10
2007,08,17,15,06,18.10
2007,08,17,15,07,18.10
2007,08,17,15,08,18.10
2007,08,17,15,09,18.10
2007,08,17,15,10,18.10
2007,08,17,15,11,18.10
2007,08,17,15,12,18.00
2007,08,17,15,13,18.10
2007,08,17,15,14,18.10
2007,08,17,15,15,18.10
2007,08,17,15,16,18.10
2007,08,17,15,17,18.10
2007,08,17,15,18,18.10
2007,08,17,15,19,18.10
2007,08,17,15,20,18.10
2007,08,17,15,21,18.20
2007,08,17,15,22,18.20
2007,08,17,15,23,18.20
2007,08,17,15,24,18.20
2007,08,17,15,25,18.20
2007,08,17,15,26,18.20
2007,08,17,15,27,18.20
2007,08,17,15,28,18.20
2007,08,17,15,29,18.20
2007,08,17,15,30,18.20
2007,08,17,15,31,18.20
2007,08,17,15,32,18.20
2007,08,17,15,33,18.20
2007,08,17,15,34,18.10
2007,08,17,15,35,18.10
2007,08,17,15,36,18.10
2007,08,17,15,37,18.20
2007,08,17,15,38,18.20
2007,08,17,15,39,18.20
2007,08,17,15,40,18.20
2007,08,17,15,41,18.30
2007,08,17,15,42,18.30
2007,08,17,15,43,18.40
2007,08,17,15,44,18.40
2007,08,17,15,45,18.40
2007,08,17,15,46,18.50
2007,08,17,15,47,18.50
2007,08,17,15,48,18.60
2007,08,17,15,49,18.60
2007,08,17,15,50,18.60
2007,08,17,15,51,18.60
2007,08,17,15,52,18.60
2007,08,17,15,53,18.70
2007,08,17,15,54,18.70
2007,08,17,15,55,18.70
2007,08,17,15,56,18.70
2007,08,17,15,57,18.80
2007,08,17,15,58,18.80
2007,08,17,15,59,18.80
2007,08,17,16,00,18.90
2007,08,17,16,01,18.90
2007,08,17,16,02,19.00
2007,08,17,16,03,19.00
2007,08,17,16,04,19.10
2007,08,17,16,05,19.20
2007,08,17,16,06,19.20
2007,08,17,16,07,19.30
2007,08,17,16,08,19.30
2007,08,17,16,09,19.30
2007,08,17,16,10,19.30
2007,08,17,16,11,19.30
2007,08,17,16,12,19.40
2007,08,17,16,13,19.40
2007,08,17,16,14,19.40
2007,08,17,16,15,19.40
2007,08,17,16,16,19.40
2007,08,17,16,17,19.40
2007,08,17,16,18,19.40
2007,08,17,16,19,19.50
2007,08,17,16,20,19.50
2007,08,17,16,21,19.60
2007,08,17,16,22,19.60
2007,08,17,16,23,19.70
2007,08,17,16,24,19.70
2007,08,17,16,25,19.70
2007,08,17,16,26,19.70
2007,08,17,16,27,19.70
2007,08,17,16,28,19.80
2007,08,17,16,29,19.80
2007,08,17,16,30,19.80
2007,08,17,16,31,19.80
2007,08,17,16,32,19.90
2007,08,17,16,33,20.00
2007,08,17,16,34,20.00
2007,08,17,16,35,20.10
2007,08,17,16,36,20.10
2007,08,17,16,37,20.20
2007,08,17,16,38,20.20
2007,08,17,16,39,20.30
2007,08,17,16,40,20.30
2007,08,17,16,41,20.30
2007,08,17,16,42,20.30
2007,08,17,16,43,20.30
2007,08,17,16,44,20.30
2007,08,17,16,45,20.30
2007,08,17,16,46,20.30
2007,08,17,16,47,20.30
2007,08,17,16,48,20.30
2007,08,17,16,49,20.30
2007,08,17,16,50,20.40
2007,08,17,16,51,20.40
2007,08,17,16,52,20.50
2007,08,17,16,53,20.50
2007,08,17,16,54,20.60
2007,08,17,16,55,20.60
2007,08,17,16,56,20.60
2007,08,17,16,57,20.60
2007,08,17,16,58,20.60
2007,08,17,16,59,20.60
2007,08,17,17,00,20.50
2007,08,17,17,01,20.40
2007,08,17,17,02,20.40
2007,08,17,17,03,20.40
2007,08,17,17,04,20.40
2007,08,17,17,05,20.40
2007,08,17,17,06,20.40
2007,08,17,17,07,20.40
2007,08,17,17,08,20.40
2007,08,17,17,09,20.40
2007,08,17,17,10,20.50
2007,08,17,17,11,20.40
2007,08,17,17,12,20.40
2007,08,17,17,13,20.40
2007,08,17,17,14,20.40
2007,08,17,17,15,20.40
2007,08,17,17,16,20.40
2007,08,17,17,17,20.40
2007,08,17,17,18,20.40
2007,08,17,17,19,20.40